EW7929 Weather Reports


time (UTC)temp
F
wind
direction
speed
knots
gust
knots
rain 1hr
in
rain 24hr
in
rain mn
in
humidity
%
barometer
mb
20260507151256 65 88 1.7 4.3 0.00 0.03 0.03 67 1014.9
20260507150751 65 115 2.6 4.3 0.00 0.03 0.03 67 1014.8
20260507150245 65 79 2.6 6.1 0.00 0.03 0.03 67 1014.9
20260507145738 65 111 1.7 6.1 0.00 0.03 0.03 67 1014.9
20260507145232 65 113 1.7 3.5 0.00 0.03 0.03 67 1014.9
20260507144221 64 128 2.6 5.2 0.00 0.03 0.03 69 1015.0
20260507143208 65 99 2.6 7.0 0.00 0.03 0.03 68 1015.2
20260507142702 65 218 1.7 6.1 0.00 0.03 0.03 67 1015.1
20260507142156 65 242 2.6 9.6 0.00 0.03 0.03 68 1015.1
20260507141144 65 108 2.6 7.8 0.00 0.03 0.03 68 1015.1
20260507135626 64 98 1.7 4.3 0.00 0.03 0.03 69 1015.4
20260507135120 64 181 1.7 4.3 0.00 0.03 0.03 69 1015.4
20260507134620 64 120 0.9 5.2 0.00 0.03 0.03 69 1015.5
20260507134107 64 263 1.7 5.2 0.00 0.03 0.03 71 1015.4
20260507133602 63 38 1.7 5.2 0.00 0.03 0.03 72 1015.5
20260507133057 63 122 1.7 5.2 0.00 0.03 0.03 72 1015.5
20260507132551 63 120 3.5 6.1 0.00 0.03 0.03 72 1015.5
20260507132044 63 60 2.6 6.1 0.00 0.03 0.03 71 1015.5
20260507131542 63 125 0.9 4.3 0.00 0.03 0.03 72 1015.5
20260507131032 63 174 0.9 4.3 0.00 0.03 0.03 70 1015.6
20260507130527 62 216 0.9 4.3 0.00 0.03 0.03 73 1015.6
20260507125514 61 203 0.9 4.3 0.00 0.03 0.03 75 1015.7
20260507124511 61 187 1.7 3.5 0.00 0.03 0.03 75 1015.8
20260507123511 61 114 1.7 5.2 0.00 0.03 0.03 75 1015.9
20260507122508 61 127 0.9 4.3 0.00 0.03 0.03 74 1016.0
20260507122006 61 231 0.0 1.7 0.00 0.03 0.03 73 1016.1
20260507121507 61 108 0.9 2.6 0.00 0.03 0.03 74 1016.2
20260507121008 61 108 0.9 2.6 0.00 0.03 0.03 73 1016.4
20260507120508 61 129 0.0 1.7 0.00 0.03 0.03 73 1016.4
20260507120008 61 227 0.9 3.5 0.00 0.03 0.03 72 1016.4
20260507115508 61 149 1.7 4.3 0.00 0.03 0.03 72 1016.5
20260507115007 62 75 0.9 4.3 0.00 0.03 0.03 71 1016.5
20260507114508 62 212 0.0 3.5 0.00 0.03 0.03 69 1016.5
20260507114006 62 233 0.0 1.7 0.00 0.03 0.03 69 1016.5
20260507113509 62 293 0.9 2.6 0.00 0.03 0.03 68 1016.6
20260507113009 62 263 0.0 2.6 0.00 0.03 0.03 69 1016.6
20260507112004 62 263 0.9 4.3 0.00 0.03 0.03 68 1016.5
20260507111506 62 262 0.9 6.1 0.00 0.03 0.03 68 1016.6
20260507111005 62 262 0.9 6.1 0.00 0.03 0.03 68 1016.7
20260507110506 62 263 0.9 4.3 0.01 0.03 0.03 70 1016.8
20260507110008 62 263 0.0 2.6 0.01 0.03 0.03 71 1016.7
20260507105007 61 263 1.7 4.3 0.01 0.03 0.03 71 1016.9
20260507104506 61 263 1.7 4.3 0.01 0.03 0.03 72 1016.9
20260507104009 61 288 1.7 7.0 0.01 0.03 0.03 72 1016.9
20260507103507 61 262 0.9 7.0 0.01 0.03 0.03 72 1017.0
20260507103005 61 277 0.9 3.5 0.01 0.03 0.03 75 1017.0
20260507101959 61 303 0.9 5.2 0.02 0.03 0.03 74 1017.1
20260507101001 60 305 0.0 2.6 0.02 0.03 0.03 75 1017.2
20260507100459 60 349 0.0 2.6 0.01 0.02 0.02 74 1017.2
20260507094954 60 319 0.0 1.7 0.01 0.02 0.02 76 1017.2
20260507094454 60 287 0.0 0.9 0.01 0.02 0.02 77 1017.3
20260507093952 60 287 0.0 0.9 0.02 0.02 0.02 77 1017.3
20260507093450 60 308 0.0 0.0 0.02 0.02 0.02 78 1017.3
20260507092947 60 306 0.0 0.9 0.02 0.02 0.02 77 1017.3
20260507092446 59 308 0.0 0.9 0.02 0.02 0.02 77 1017.2
20260507091946 59 287 0.0 0.9 0.01 0.02 0.02 77 1017.2
20260507091447 59 315 0.0 0.9 0.01 0.02 0.02 78 1017.2
20260507090956 59 286 0.0 0.9 0.01 0.02 0.02 78 1017.2
20260507090442 59 287 0.0 0.9 0.01 0.02 0.02 77 1017.1
20260507085943 59 286 0.0 0.9 0.01 0.02 0.02 77 1017.1
20260507085442 59 287 0.0 0.9 0.01 0.02 0.02 78 1017.0
20260507084942 59 287 0.0 0.9 0.01 0.02 0.02 78 1017.0
20260507083942 59 287 0.0 0.9 0.00 0.01 0.01 78 1017.1
20260507082945 59 287 0.0 1.7 0.00 0.01 0.01 78 1017.2
20260507082439 59 307 0.9 2.6 0.00 0.01 0.01 78 1017.2
20260507081938 59 287 0.9 4.3 0.00 0.01 0.01 77 1017.2
20260507081438 59 288 0.9 4.3 0.00 0.01 0.01 76 1017.1
20260507080938 59 325 0.0 2.6 0.01 0.01 0.01 77 1017.1
20260507075940 58 310 0.9 2.6 0.01 0.01 0.01 77 1017.1
20260507075440 58 319 0.9 2.6 0.01 0.01 0.01 76 1017.1
20260507074442 58 298 0.0 1.7 0.01 0.01 0.01 77 1017.0
20260507073940 58 309 0.0 2.6 0.01 0.01 0.01 78 1016.9
20260507072940 57 308 0.9 4.3 0.01 0.01 0.01 76 1016.9
20260507072438 57 313 0.9 5.2 0.01 0.01 0.01 76 1016.8
20260507071938 57 321 0.9 5.2 0.01 0.01 0.01 76 1016.8
20260507071439 57 333 0.9 5.2 0.01 0.01 0.01 76 1016.8
20260507070938 57 297 0.9 5.2 0.00 0.00 0.00 75 1016.8
20260507070438 57 29 1.7 5.2 0.00 0.00 0.00 73 1016.7
20260507065936 58 345 1.7 5.2 0.00 0.00 0.00 73 1016.7
20260507065433 58 344 0.9 4.3 0.00 0.00 0.00 73 1016.7
20260507064933 58 48 0.0 2.6 0.00 0.00 0.00 73 1016.7
20260507064427 58 33 0.0 1.7 0.00 0.00 0.00 73 1016.7
20260507063415 58 351 0.0 2.6 0.00 0.00 0.00 72 1016.6
20260507062909 58 24 0.0 0.9 0.00 0.00 0.00 73 1016.6
20260507062405 58 22 0.0 1.7 0.00 0.00 0.00 72 1016.6
20260507061857 58 314 0.0 1.7 0.00 0.00 0.00 71 1016.6
20260507060846 58 314 0.0 2.6 0.00 0.00 0.00 70 1016.6
20260507060340 58 358 0.0 0.9 0.00 0.00 0.00 70 1016.5
20260507055834 58 117 0.0 0.9 0.00 0.00 0.00 68 1016.5
20260507055330 58 139 0.0 0.9 0.00 0.00 0.00 69 1016.4
20260507054830 58 139 0.0 0.0 0.00 0.00 0.00 69 1016.2
20260507054330 58 139 0.0 0.9 0.00 0.00 0.00 70 1016.1
20260507053830 57 138 0.0 1.7 0.00 0.00 0.00 70 1016.0
20260507053330 58 138 0.0 1.7 0.00 0.00 0.00 69 1016.0
20260507051831 57 113 0.0 0.9 0.00 0.00 0.00 72 1015.8
20260507051344 56 113 0.0 0.9 0.00 0.00 0.00 72 1015.7
20260507050330 56 113 0.0 0.9 0.00 0.00 0.00 74 1015.7
20260507045832 56 113 0.0 0.9 0.00 0.00 0.00 74 1015.6
20260507044332 55 113 0.0 0.9 0.00 0.00 0.00 75 1015.5
20260507043831 54 113 0.0 0.9 0.00 0.00 0.00 75 1015.3
20260507043333 54 120 0.0 0.9 0.00 0.00 0.00 76 1015.3
20260507042827 54 120 0.0 0.9 0.00 0.00 0.00 76 1015.2
20260507042321 54 120 0.0 0.9 0.00 0.00 0.00 76 1015.3
20260507041815 54 120 0.0 0.9 0.00 0.00 0.00 76 1015.3
20260507041309 54 120 0.0 0.9 0.00 0.00 0.00 76 1015.2
20260507040803 53 120 0.0 0.9 0.00 0.00 0.00 76 1015.2
20260507040257 53 120 0.0 0.9 0.00 0.00 0.00 76 1015.2
20260507035751 53 120 0.0 0.9 0.00 0.00 0.00 76 1015.1
20260507035245 53 120 0.0 0.9 0.00 0.00 0.00 76 1015.1
20260507034233 53 120 0.0 0.9 0.00 0.00 0.00 76 1015.1
20260507033726 53 120 0.0 0.9 0.00 0.00 0.00 76 1014.9
20260507032209 53 120 0.0 0.9 0.00 0.00 0.00 74 1014.8
20260507031703 54 117 0.0 0.9 0.00 0.00 0.00 73 1014.8
20260507031157 54 117 0.0 0.9 0.00 0.00 0.00 73 1014.8
20260507030145 54 117 0.0 0.0 0.00 0.00 0.00 73 1014.7
20260507025639 54 117 0.0 0.0 0.00 0.00 0.00 73 1014.7
20260507024628 54 117 0.0 0.9 0.00 0.00 0.00 73 1014.7
20260507023110 54 117 0.0 0.0 0.00 0.00 0.00 72 1014.6
20260507022602 55 117 0.0 0.0 0.00 0.00 0.00 72 1014.5
20260507022058 55 117 0.0 0.0 0.00 0.00 0.00 72 1014.6
20260507021551 55 117 0.0 0.9 0.00 0.00 0.00 71 1014.5
20260507021046 55 117 0.0 0.9 0.00 0.00 0.00 71 1014.5
20260507020033 54 117 0.0 0.9 0.00 0.00 0.00 71 1014.5
20260507015526 54 117 0.0 0.9 0.00 0.00 0.00 71 1014.5
20260507015021 54 117 0.0 0.9 0.00 0.00 0.00 71 1014.5
20260507014528 54 117 0.0 0.0 0.00 0.00 0.00 71 1014.5
20260507014010 54 117 0.0 0.9 0.00 0.00 0.00 71 1014.4
20260507013504 54 117 0.0 0.9 0.00 0.00 0.00 71 1014.4
20260507012956 54 116 0.0 0.9 0.00 0.00 0.00 71 1014.2
20260507012452 54 117 0.0 1.7 0.00 0.00 0.00 71 1014.1
20260507011946 55 117 0.0 1.7 0.00 0.00 0.00 71 1014.1
20260507010933 55 79 0.0 0.0 0.00 0.00 0.00 72 1014.2
20260507010427 54 79 0.0 0.0 0.00 0.00 0.00 72 1014.2
20260507005415 54 79 0.0 0.9 0.00 0.00 0.00 72 1014.0
20260507004910 54 79 0.0 0.9 0.00 0.00 0.00 72 1014.0
20260507004404 54 79 0.0 0.9 0.00 0.00 0.00 72 1014.0
20260507002845 53 79 0.0 0.9 0.00 0.00 0.00 73 1013.9
20260507002338 53 79 0.9 3.5 0.00 0.00 0.00 73 1013.8
20260507001833 53 79 1.7 5.2 0.00 0.00 0.00 73 1013.8
20260507001328 53 72 0.0 5.2 0.00 0.00 0.00 72 1013.8
20260507000828 53 272 0.0 0.9 0.00 0.00 0.00 73 1013.9
20260507000328 53 273 0.0 0.9 0.00 0.00 0.00 73 1014.0
20260506235830 53 272 0.0 0.9 0.00 0.00 0.00 72 1014.0
20260506235325 53 273 0.0 0.0 0.00 0.00 0.00 71 1014.0
20260506234838 54 272 0.0 0.0 0.00 0.00 0.00 71 1014.0
20260506234325 54 273 0.0 0.9 0.00 0.00 0.00 71 1014.0
20260506233826 54 273 0.0 0.9 0.00 0.00 0.00 71 1014.0
20260506233322 54 272 0.0 0.9 0.00 0.00 0.00 71 1014.0
20260506232819 54 273 0.0 0.9 0.00 0.00 0.00 70 1014.1
20260506232320 54 273 0.0 0.9 0.00 0.00 0.00 70 1014.1
20260506231820 55 273 0.0 0.9 0.00 0.00 0.00 70 1014.1
20260506231334 55 273 0.0 0.9 0.00 0.00 0.00 70 1014.0
20260506230819 55 273 0.0 0.9 0.00 0.00 0.00 69 1014.0
20260506230319 55 273 0.0 0.9 0.00 0.00 0.00 68 1014.0
20260506225321 56 273 0.0 0.9 0.00 0.00 0.00 68 1014.0
20260506224817 56 273 0.0 0.9 0.00 0.00 0.00 67 1014.0
20260506224318 56 273 0.0 0.0 0.00 0.00 0.00 67 1014.0
20260506223830 56 273 0.0 0.0 0.00 0.00 0.00 68 1013.9
20260506223319 56 273 0.0 0.9 0.00 0.00 0.00 67 1013.9
20260506222316 56 243 0.0 0.0 0.00 0.00 0.00 66 1013.9
20260506221820 56 244 0.0 0.0 0.00 0.00 0.00 65 1013.9
20260506215818 58 245 0.0 0.9 0.00 0.00 0.00 63 1013.8
20260506215317 58 244 0.0 0.9 0.00 0.00 0.00 63 1013.9
20260506214819 58 243 0.0 0.9 0.00 0.00 0.00 63 1013.8
20260506214314 58 243 0.0 0.9 0.00 0.00 0.00 63 1013.7
20260506213811 58 273 0.0 0.9 0.00 0.00 0.00 62 1013.7
20260506213311 58 273 0.0 0.9 0.00 0.00 0.00 62 1013.6
20260506212307 59 273 0.0 1.7 0.00 0.00 0.00 61 1013.6
20260506211809 59 273 0.0 1.7 0.00 0.00 0.00 60 1013.6
20260506211310 60 273 0.0 0.9 0.00 0.00 0.00 59 1013.6
20260506210805 60 273 0.0 1.7 0.00 0.00 0.00 58 1013.6
20260506210303 60 271 0.0 2.6 0.00 0.00 0.00 58 1013.6
20260506205804 60 247 0.0 2.6 0.00 0.00 0.00 57 1013.6
20260506204801 61 273 0.0 0.9 0.00 0.00 0.00 57 1013.6
20260506203758 61 272 0.0 0.9 0.00 0.00 0.00 56 1013.6
20260506203300 61 273 0.0 0.9 0.00 0.00 0.00 56 1013.6
20260506202758 62 273 0.0 0.9 0.00 0.00 0.00 55 1013.6
20260506202258 62 273 0.0 3.5 0.00 0.00 0.00 54 1013.6
20260506201755 62 273 0.9 3.5 0.00 0.00 0.00 53 1013.5
20260506201254 62 273 0.9 5.2 0.00 0.00 0.00 53 1013.5
20260506200756 63 273 0.0 5.2 0.00 0.00 0.00 53 1013.5
20260506200256 63 273 0.0 3.5 0.00 0.00 0.00 53 1013.6
20260506195752 63 273 0.0 2.6 0.00 0.00 0.00 53 1013.5
20260506195253 63 273 0.9 4.3 0.00 0.00 0.00 52 1013.5
20260506194752 63 273 0.9 4.3 0.00 0.00 0.00 52 1013.3
20260506194252 63 273 0.9 4.3 0.00 0.00 0.00 52 1013.4
20260506193747 63 273 0.9 4.3 0.00 0.00 0.00 52 1013.4
20260506193302 63 273 0.9 4.3 0.00 0.00 0.00 51 1013.3
20260506192244 63 273 0.0 2.6 0.00 0.00 0.00 51 1013.4
20260506191749 63 273 0.0 2.6 0.00 0.00 0.00 50 1013.4
20260506190234 64 272 0.9 3.5 0.00 0.00 0.00 49 1013.3
20260506185223 65 273 0.9 5.2 0.00 0.00 0.00 48 1013.1
20260506184717 65 273 0.0 3.5 0.00 0.00 0.00 48 1013.1
20260506183704 65 272 0.0 0.9 0.00 0.00 0.00 47 1013.0
20260506183159 65 273 0.0 0.9 0.00 0.00 0.00 47 1012.9
20260506182653 65 273 0.0 0.9 0.00 0.00 0.00 46 1012.8
20260506182146 66 273 0.0 1.7 0.00 0.00 0.00 46 1012.7
20260506181641 66 252 0.9 3.5 0.00 0.00 0.00 46 1012.7
20260506181134 66 11 0.9 5.2 0.00 0.00 0.00 47 1012.5
20260506180122 66 299 0.9 6.1 0.00 0.00 0.00 47 1012.2
20260506175616 66 300 0.9 3.5 0.00 0.00 0.00 48 1012.2
20260506175111 66 300 0.9 4.3 0.00 0.00 0.00 47 1012.2
20260506174604 66 50 1.7 5.2 0.00 0.00 0.00 47 1012.0
20260506173552 67 48 3.5 7.0 0.00 0.00 0.00 47 1011.9
20260506172540 67 8 2.6 10.4 0.00 0.00 0.00 47 1011.8
20260506172034 68 30 2.6 10.4 0.00 0.00 0.00 46 1011.7
20260506171528 68 50 2.6 7.8 0.00 0.00 0.00 46 1011.6
20260506170521 69 53 1.7 7.0 0.00 0.00 0.00 45 1011.5
20260506170011 69 34 3.5 9.6 0.00 0.00 0.00 45 1011.4
20260506164958 70 53 3.5 10.4 0.00 0.00 0.00 44 1011.3
20260506164452 70 41 2.6 8.7 0.00 0.00 0.00 43 1011.2
20260506163947 71 50 2.6 7.0 0.00 0.00 0.00 42 1011.3
20260506163441 71 288 4.3 10.4 0.00 0.00 0.00 41 1011.2
20260506162934 72 288 5.2 11.3 0.00 0.00 0.00 40 1011.2
20260506162429 74 287 3.5 11.3 0.00 0.00 0.00 37 1011.2
20260506161923 75 287 1.7 6.1 0.00 0.00 0.00 35 1011.1
20260506161418 76 287 2.6 6.1 0.00 0.00 0.00 35 1011.1
20260506160916 76 287 2.6 7.0 0.00 0.00 0.00 35 1011.1
20260506160407 76 287 2.6 7.0 0.00 0.00 0.00 34 1011.1
20260506154846 76 287 2.6 7.0 0.00 0.00 0.00 33 1011.2
20260506154346 76 287 2.6 6.1 0.00 0.00 0.00 33 1011.2
20260506153329 77 287 1.7 6.1 0.00 0.00 0.00 32 1011.2
20260506152822 78 287 1.7 5.2 0.00 0.00 0.00 30 1011.2
20260506152317 79 287 1.7 5.2 0.00 0.00 0.00 27 1011.2
20260506151810 79 286 1.7 4.3 0.00 0.00 0.00 27 1011.2